Vertical_Velocity
9 3 6 -12 -2 20 10 -2 3 1 11 15 -0 -0 -12 -2 -3 2 -0 0 1 -0 -0 -0 0 -1 -1 1 -2 -1 -4 -4 0 -13 0 -2 -1 -1 -3 -1 -3 -1 -3 -12
-6 -1 -3 -10 7 6 -3 -1 -2 5 13 1 1 -0 -5 -0 4 -2 -1 -0 -1 -0 -0 -1 0 -0 -2 0 -1 -5 -5 -2 -1 -8 -8 -2 1 -1 -1 -0 -0 -6 -4 -8
-3 -4 2 -6 6 1 14 -1 2 0 9 3 -0 1 -2 -0 -1 -2 1 -1 3 3 2 -0 -3 -0 -1 0 -0 0 -1 0 -5 -6 -7 -3 0 0 -0 1 4 -2 -8 2
-3 3 -3 -1 1 7 18 -2 -2 -2 1 4 1 4 1 1 0 -0 3 1 1 -1 1 1 -1 0 1 0 -1 1 -4 -0 1 -1 -1 0 -1 -1 -0 3 -8 1 -4 -2
8 8 4 0 -5 8 35 -8 -6 2 0 3 4 0 -3 -1 -2 3 -2 5 -1 1 -0 -5 -1 1 -1 -5 2 -0 0 -1 -0 -1 0 1 1 -0 0 -0 -1 1 1 -1
3 6 -2 -2 9 -1 6 4 4 -2 -0 1 5 -9 -9 -7 -1 -4 -3 -0 2 3 -9 -2 -2 -1 -1 -2 -2 -1 -1 -1 1 -3 -0 0 4 -9 -2 -0 0 -1 0 -10
7 3 -1 2 -1 7 -6 -4 -2 -2 1 -1 -5 -0 -0 -1 -4 -4 -2 7 8 -6 -1 3 0 0 1 3 -1 -3 -2 0 0 -0 1 6 -6 -0 -0 -1 -1 0 -0 2
1 -1 2 9 -2 1 1 6 -5 -0 -0 -2 3 2 -0 1 -1 4 3 -10 -1 -0 7 1 2 2 2 -1 -1 1 -3 -2 0 -1 -0 -4 1 -2 -4 -6 -7 -1 -3 2
-1 -2 4 -2 4 1 5 -1 2 -2 -4 -6 -4 -0 -2 -2 -0 -1 -3 -4 -4 3 -1 1 0 -2 -2 2 6 1 0 -1 -3 1 -1 -3 -8 0 -0 -2 -9 -1 -5 0
1 1 1 -5 4 9 -2 -6 -1 1 2 -5 -2 -3 -7 0 2 -2 1 2 7 3 0 1 1 -2 -4 -2 -2 1 1 2 -2 1 -1 -7 -3 -0 -0 -11 -21 0 -3 -3
-1 -2 -1 -1 1 4 2 -13 2 -6 -2 -11 -5 2 -2 0 2 -2 -2 5 5 2 5 1 -2 2 -3 -1 -3 -3 -5 -4 -1 1 1 -10 -1 0 -4 -8 1 -1 1 -1
-1 -2 -2 2 5 4 8 1 0 -1 2 -2 -0 1 4 -4 5 2 4 -5 -1 -4 -1 2 1 0 0 -2 -2 2 -3 -10 -10 -10 -12 -1 0 -0 -1 -1 -5 0 -2 2
-1 -5 -5 -2 1 3 -2 -5 -1 19 10 -10 8 -16 2 -1 -7 7 -0 -0 1 -1 1 -2 -1 -1 0 -1 -3 -1 -0 -0 -2 -5 -1 -0 -0 1 0 1 -1 -1 2 -1
-1 -0 -1 0 -1 -1 4 -7 2 -1 10 1 -8 2 -1 -0 -4 -1 -3 2 12 5 4 -1 -0 -0 1 -2 -6 -4 -5 -3 -1 0 2 1 0 -1 -2 -1 -0 -1 1 0
6 1 -2 -3 -3 3 9 4 2 8 -1 -2 -2 1 3 -0 2 7 2 8 11 -1 -0 1 -1 -0 -2 -1 -3 -0 -2 -4 -3 -6 -5 -4 -3 -3 -1 -3 -3 0 -4 -0
-5 7 1 0 1 10 22 3 -10 -16 24 -0 1 -2 -5 0 1 3 -10 -11 18 -8 -2 -0 0 1 -5 -2 -0 -1 1 1 1 -1 2 -1 1 0 2 -4 -3 -0 -1 1
3 2 2 1 6 3 -20 -6 -2 -4 8 5 0 -1 -4 14 3 -3 -5 3 -2 7 -0 -1 -1 0 -3 -1 -0 1 0 1 1 2 -6 0 5 -3 -0 -1 1 2 3 1
5 1 -0 4 21 20 3 -9 4 -8 5 3 -0 -1 2 2 -0 0 1 3 2 -0 0 0 -1 -1 -1 -1 1 1 2 1 2 1 -1 -1 -4 1 4 1 -1 1 -1 -1
9 2 19 13 3 -4 -7 3 4 7 4 -0 -1 -3 -4 3 1 1 1 1 -3 1 -1 -0 -2 -1 -1 -2 -2 -1 -1 -1 -2 1 2 2 1 0 1 -1 2 -1 -0 1
19 -2 -1 1 -4 4 8 15 7 3 -1 1 -2 1 -3 -0 0 0 -2 -0 -0 -2 -2 0 -2 -1 1 1 -0 1 -2 0 -2 -7 2 5 3 -1 -1 -2 -0 -0 -3 -0
1 0 -0 5 -11 -1 -1 1 -1 1 0 1 0 -0 -2 -0 -4 -1 0 -1 -1 -2 -5 -5 -1 -2 -0 1 -0 0 -1 1 3 0 0 6 2 -4 -3 1 1 1 -0 -2
-2 -20 -11 4 2 1 -6 -1 -1 -1 -2 1 -1 -0 0 0 1 -4 -1 -1 -3 -1 -0 -4 -1 -4 1 0 0 -0 -0 -1 1 0 -1 -0 -1 -1 -2 -2 -1 -0 -1 -2
-3 4 2 2 -0 -7 -4 -1 -1 -1 -1 0 1 -2 0 1 -1 -2 -2 -4 -2 -1 -4 -2 -4 -0 1 1 -1 -0 -0 -0 -0 -0 1 2 1 3 1 -4 -1 1 2 2
-5 -2 -4 -5 -2 -0 -0 0 -0 0 1 1 -0 -2 -2 1 -4 0 -5 -2 -3 -2 -1 -4 -2 -2 0 1 0 0 -1 -1 0 -0 0 -1 -1 -1 1 2 -0 -1 -1 -0
-3 -4 -0 -1 1 0 1 -1 -1 2 3 1 -3 -3 -3 -0 -3 -1 -2 -3 -1 -3 -5 -2 0 -1 -1 1 0 -1 -1 -1 0 -1 -2 -1 -0 -0 -0 1 0 1 0 -0
-2 -4 -2 -1 -1 0 -0 0 0 2 4 1 -2 -1 -3 -0 -2 -2 -1 -3 -3 -5 -1 -0 1 0 0 -0 -1 -0 1 0 -1 1 0 -0 -0 -1 -1 1 2 1 -0 -2
-2 -0 1 1 1 2 1 1 1 2 -0 -1 -1 -3 -1 -3 -1 -0 -1 -2 -2 -0 -0 1 2 -0 -2 -0 -1 -0 -0 -1 -1 0 2 1 1 1 1 -0 -1 2 2 3
Height
1392 1398 1406 1412 1419 1425 1430 1436 1439 1436 1441 1446 1449 1448 1440 1444 1441 1447 1448 1447 1446 1446 1446 1445 1444 1446 1444 1442 1443 1450 1450 1457 1457 1457 1458 1458 1462 1466 1469 1477 1484 1483 1492 1477
1384 1391 1398 1406 1413 1417 1422 1429 1433 1434 1435 1436 1439 1441 1440 1442 1442 1445 1446 1444 1444 1443 1445 1448 1445 1442 1440 1441 1443 1447 1451 1461 1463 1468 1465 1463 1460 1457 1456 1461 1469 1463 1478 1463
1377 1384 1390 1399 1407 1412 1419 1424 1426 1431 1429 1431 1434 1437 1439 1438 1438 1442 1443 1442 1442 1444 1445 1445 1444 1441 1442 1442 1442 1443 1447 1453 1450 1451 1451 1457 1462 1456 1453 1456 1461 1452 1450 1459
1370 1378 1384 1392 1401 1408 1413 1415 1414 1415 1421 1426 1430 1432 1431 1432 1433 1435 1440 1441 1439 1443 1446 1443 1444 1442 1443 1443 1442 1444 1446 1448 1453 1448 1448 1451 1453 1452 1449 1449 1448 1450 1449 1447
1368 1374 1379 1387 1395 1403 1405 1405 1408 1413 1416 1420 1425 1429 1429 1430 1430 1432 1435 1435 1436 1438 1442 1440 1439 1439 1441 1442 1442 1445 1446 1450 1451 1449 1446 1447 1450 1445 1446 1446 1445 1445 1446 1446
1364 1369 1375 1383 1389 1396 1395 1398 1402 1407 1412 1417 1421 1420 1419 1420 1429 1429 1429 1433 1436 1437 1434 1436 1436 1438 1438 1438 1441 1443 1446 1449 1450 1443 1444 1449 1446 1432 1434 1435 1437 1434 1437 1437
1360 1366 1371 1379 1385 1390 1394 1397 1402 1404 1410 1413 1413 1415 1419 1420 1424 1425 1426 1428 1430 1430 1432 1431 1432 1434 1434 1433 1429 1431 1440 1446 1445 1441 1445 1440 1429 1431 1427 1426 1429 1432 1434 1437
1357 1363 1370 1374 1381 1388 1393 1397 1400 1400 1407 1408 1412 1415 1414 1417 1423 1420 1423 1425 1426 1427 1428 1432 1432 1432 1432 1423 1425 1427 1426 1438 1441 1442 1440 1432 1430 1429 1431 1429 1428 1431 1436 1444
1356 1361 1366 1371 1378 1384 1390 1395 1398 1401 1403 1404 1407 1410 1413 1418 1419 1419 1416 1419 1421 1425 1429 1429 1425 1425 1416 1420 1422 1425 1426 1428 1435 1444 1448 1446 1433 1424 1424 1424 1432 1427 1432 1440
1353 1358 1363 1369 1375 1381 1386 1390 1395 1399 1401 1401 1402 1405 1407 1412 1414 1414 1412 1414 1417 1420 1423 1427 1421 1414 1411 1413 1416 1420 1426 1432 1430 1436 1438 1432 1424 1423 1424 1438 1432 1425 1429 1436
1349 1354 1360 1366 1372 1378 1383 1387 1391 1396 1399 1399 1399 1401 1402 1404 1408 1410 1411 1412 1411 1416 1417 1418 1415 1415 1408 1412 1417 1415 1417 1425 1428 1431 1435 1439 1420 1424 1427 1425 1424 1426 1431 1437
1344 1349 1356 1362 1368 1375 1381 1384 1388 1394 1399 1397 1395 1397 1397 1399 1401 1402 1404 1403 1403 1403 1409 1411 1410 1405 1411 1408 1416 1411 1417 1415 1425 1422 1425 1421 1419 1420 1420 1421 1422 1427 1431 1436
1333 1342 1350 1357 1364 1370 1376 1380 1386 1393 1395 1394 1394 1391 1392 1393 1394 1397 1399 1399 1399 1399 1400 1403 1403 1401 1406 1402 1410 1407 1408 1409 1418 1418 1419 1419 1419 1420 1421 1422 1424 1427 1431 1435
1328 1335 1344 1352 1360 1367 1373 1377 1383 1389 1389 1391 1384 1383 1383 1384 1385 1387 1391 1395 1395 1397 1397 1400 1399 1399 1400 1400 1400 1403 1404 1407 1412 1417 1418 1419 1419 1420 1421 1422 1425 1427 1431 1434
1327 1333 1340 1348 1356 1364 1371 1376 1379 1382 1387 1383 1381 1379 1377 1376 1377 1381 1385 1391 1394 1393 1396 1396 1395 1393 1396 1398 1398 1402 1398 1402 1405 1405 1402 1406 1408 1415 1419 1422 1425 1427 1430 1435
1327 1333 1339 1346 1354 1363 1370 1373 1375 1377 1380 1380 1378 1375 1371 1369 1372 1376 1380 1382 1389 1391 1389 1388 1388 1388 1392 1401 1400 1396 1396 1397 1398 1399 1402 1405 1408 1414 1419 1422 1426 1430 1433 1437
1328 1334 1340 1346 1353 1359 1365 1366 1365 1368 1376 1377 1376 1373 1371 1369 1374 1377 1380 1382 1385 1384 1384 1386 1387 1388 1389 1395 1398 1396 1397 1397 1398 1400 1402 1410 1412 1415 1420 1424 1428 1432 1436 1441
1329 1335 1341 1347 1354 1360 1363 1364 1365 1368 1374 1375 1374 1373 1372 1373 1376 1379 1379 1379 1381 1383 1384 1386 1388 1391 1391 1395 1397 1398 1398 1399 1402 1403 1404 1404 1410 1416 1421 1425 1428 1433 1437 1442
1332 1337 1341 1347 1350 1356 1362 1364 1368 1371 1375 1371 1371 1375 1379 1371 1372 1373 1375 1376 1382 1383 1386 1388 1390 1394 1395 1394 1395 1397 1399 1401 1403 1405 1405 1408 1411 1416 1420 1424 1429 1433 1438 1443
1334 1340 1345 1349 1354 1356 1361 1367 1370 1371 1371 1371 1371 1372 1374 1373 1373 1376 1378 1378 1385 1389 1391 1388 1391 1396 1393 1391 1393 1397 1401 1402 1404 1406 1411 1412 1414 1416 1420 1424 1429 1433 1437 1442
1339 1341 1345 1349 1352 1357 1361 1364 1366 1368 1370 1369 1369 1370 1371 1374 1376 1380 1381 1384 1387 1390 1392 1391 1396 1395 1394 1394 1396 1400 1402 1404 1405 1407 1407 1410 1413 1416 1420 1426 1430 1435 1439 1442
1339 1342 1350 1353 1356 1357 1360 1366 1365 1365 1365 1367 1368 1370 1371 1374 1375 1378 1383 1385 1389 1387 1392 1394 1400 1395 1394 1396 1398 1402 1403 1405 1407 1408 1408 1411 1415 1418 1422 1427 1432 1436 1439 1443
1346 1348 1352 1354 1359 1366 1367 1372 1367 1369 1364 1365 1367 1372 1372 1375 1377 1382 1384 1393 1397 1393 1402 1398 1397 1394 1395 1397 1400 1403 1405 1407 1409 1410 1412 1415 1417 1421 1424 1428 1433 1437 1441 1445
1349 1352 1361 1363 1369 1365 1364 1364 1364 1364 1363 1365 1367 1372 1374 1378 1382 1388 1392 1396 1395 1406 1407 1399 1396 1394 1396 1399 1402 1404 1405 1408 1410 1412 1414 1417 1420 1423 1426 1430 1433 1437 1441 1445
1353 1356 1365 1365 1365 1365 1364 1364 1364 1365 1366 1367 1370 1375 1377 1383 1388 1391 1394 1398 1407 1404 1407 1398 1393 1395 1397 1400 1403 1405 1407 1409 1411 1414 1416 1419 1421 1424 1428 1431 1435 1438 1442 1446
1358 1363 1366 1367 1366 1365 1365 1366 1366 1367 1367 1369 1371 1378 1384 1388 1388 1391 1398 1398 1408 1403 1395 1394 1395 1396 1399 1401 1404 1406 1409 1411 1413 1415 1417 1420 1422 1425 1428 1431 1435 1438 1442 1445
1366 1370 1370 1369 1369 1369 1369 1368 1368 1368 1369 1376 1376 1383 1385 1387 1391 1391 1392 1397 1396 1394 1395 1395 1396 1398 1400 1402 1405 1407 1409 1411 1413 1416 1418 1420 1423 1426 1428 1431 1434 1438 1442 1446